User: anonymous   Login
Location: Unspecified
(0.0000°N, 0.0000°E)
Time: 00:25:18
(UTC+00:00)
Language:

LO-87 - Orbit

View from above orbital plane
View from above orbital plane
View from above satellite
View from above satellite

Ground track
Ground track

The orbit data is extracted from the following two-line orbital elements,

1 41557U 16033B   21025.55096199  .00001557  00000-0  58212-4 0  9999
2 41557  97.3966 120.3689 0013799  28.6047  96.3972 15.28800226259690
Epoch (UTC): 25 January 2021 13:13:23
Eccentricity: 0.0013799
inclination: 97.3966°
perigee height: 470 km
apogee height: 489 km
right ascension of ascending node: 120.3689°
argument of perigee: 28.6047°
revolutions per day: 15.28800226
mean anomaly at epoch: 96.3972°
orbit number at epoch: 25969

The dashed part of the orbit path shows where the satellite is in the earth's shadow,  

DLR